Flag for United Kingdom Weather past 2 weeks in Chesterfield, England, United Kingdom

Now
56 °F

Cool.


Feels Like: 54 °F
Forecast: 54 / 67 °F
Wind: 7 mph from East

Location: Nottingham Weather Centre

Current Time: Aug 27, 2014 at 10:28:07 AM

Latest Report: Aug 27, 2014 at 9:00 AM


Visibility: 11 mi

Pressure: 30.03 "Hg

Humidity: 100%

Dew point: 56 °F

Location of ChesterfieldLocation

Historic Weather in Chesterfield — Graph

°F

Chesterfield temperature yesterday

Maximum temperature yesterday: 61 °F (at 6:00 PM)
Minimum temperature yesterday: 50 °F (at 11:00 PM)
Average temperature yesterday: 57 °F

Past Weeks' High & Low Weather Summary

 TemperatureHumidityPressure
High67 °F (Aug 15, 5:00 PM)100% (Aug 13, 7:00 AM)30.14 "Hg (Aug 13, 7:00 AM)
Low44 °F (Aug 24, 6:00 AM)45% (Aug 19, 4:00 PM)29.58 "Hg (Aug 13, 5:00 AM)
Average56 °F80%29.87 "Hg
* Reported Aug 12 9:00 AM — Aug 27 9:00 AM, Chesterfield, Weather by CustomWeather, © 2014

Note: Actual official high and low records may vary slightly from our data, if they occured in-between our weather recording intervals... More about our weather records

Advertising

Chesterfield weather history for previous 24 hours

 ConditionsComfort  
Time TempWeatherWind HumidityBarometerVisibility
9:00 AM
Aug 27
56 °FCool.7 mph100%30.03 "Hg11 mi
8:00 AM53 °FCool.6 mph100%30.03 "Hg6 mi
7:00 AM50 °FFog.5 mph100%30.02 "Hg4 mi
6:00 AM48 °FFog.3 mph100%30.02 "Hg3 mi
5:00 AM49 °FFog.5 mph100%30.01 "Hg4 mi
4:00 AM48 °FFog.5 mph100%30.02 "Hg5 mi
3:00 AM47 °FCool.3 mph100%30.01 "Hg7 mi
2:00 AM48 °FCool.6 mph100%30.00 "Hg9 mi
1:00 AM48 °FCool.5 mph100%30.01 "Hg12 mi
12:00 AM49 °FCool.5 mph100%29.99 "Hg13 mi
11:00 PM
Aug 26
50 °FCool.6 mph100%29.98 "Hg14 mi
10:00 PM51 °FCool.7 mph98%29.97 "Hg15 mi
9:00 PM53 °FCool.7 mph91%29.96 "Hg16 mi
8:00 PM56 °FCool.10 mph82%29.93 "Hg19 mi
7:00 PM59 °FCool.15 mph74%29.90 "Hg19 mi
6:00 PM61 °FCool.15 mph72%29.87 "Hg19 mi
5:00 PM60 °FCool.15 mph75%29.86 "Hg18 mi
4:00 PM59 °FCool.15 mph81%29.85 "Hg17 mi
3:00 PM60 °FCool.15 mph79%29.83 "Hg16 mi
2:00 PM59 °FCool.14 mph84%29.82 "Hg15 mi
1:00 PM58 °FCool.16 mph88%29.80 "Hg14 mi
12:00 PM58 °FCool.13 mph87%29.79 "Hg13 mi
11:00 AM57 °FCool.14 mph94%29.77 "Hg11 mi
10:00 AM56 °FCool.16 mph100%29.75 "Hg7 mi
Weather by CustomWeather, © 2014

See weather overviewHow to use our weather pages